TIME,DELAY(SENSOR),PRES,OXYGEN,RAWTEMP,T(OPTODE),TCPHASE,FLUOR,BETA(BETA700),BETA(BETA412),BETA(BETA440),CDOM,C(CSC),ED(ED412.20),ED(ED444.00),ED(ED489.60),ED(ED554.30),LU(LU412.10),LU(LU443.90),LU(LU489.70),LU(LU554.70),COMP,TILTX,TILTY,CHECK
1370837036,5811,860.3200073242188000,32.3268585205078100,562.9080810546875000,4.3957347869873050,56.7361106872558600,55,99,100,78,81,15627,0,0,0,0,2147117741,2147766235,2147572361,2147571026,274,2,13,37496
1370840632,5811,939.0300292968750000,36.6467704772949200,569.3239746093750000,4.1965661048889160,56.1183815002441400,55,98,100,77,81,15625,0,0,0,0,2147119716,2147770496,2147569133,2147568484,1214,3,13,6519
1370844232,5810,952.8499755859375000,35.8263092041015600,569.8397216796875000,4.1805419921875000,56.2532615661621100,55,99,99,78,80,15622,0,0,0,0,2147121234,2147766710,2147569380,2147568822,3576,2,13,28537
1370847832,5811,982.5200195312500000,37.4041404724121100,573.3367919921875000,4.0718212127685550,56.0406608581543000,55,97,99,78,80,15623,0,0,0,0,2147120109,2147768731,2147574427,2147568502,78,3,13,46726
1370851432,5809,988.9699707031250000,35.1950302124023440,572.4890747070312000,4.0981850624084470,56.3771705627441400,55,97,100,78,80,15621,0,0,0,0,2147122166,2147766226,2147570998,2147565659,108,2,13,47087
1370855032,5810,993.1300048828125000,30.7072296142578120,573.1046752929688000,4.0790410041809080,57.1056594848632800,55,97,99,77,80,15623,0,0,0,0,2147120457,2147768832,2147573019,2147569225,136,2,13,30624
1370858632,5810,993.1400146484375000,30.7909793853759770,572.8801269531250000,4.0860252380371090,57.0918006896972660,54,96,101,78,82,15621,0,0,0,0,2147118656,2147766299,2147575661,2147568438,527,2,13,44767
1370862232,5811,993.2399902343750000,33.6290817260742200,574.1887207031250000,4.0453219413757320,56.6421394348144500,54,97,100,76,81,15620,0,0,0,0,2147120356,2147768402,2147567405,2147566153,200,3,13,52555
1370865832,5811,988.8699951171875000,36.0696105957031250,574.7150878906250000,4.0289421081542970,56.2629318237304700,55,98,101,78,81,15616,0,0,0,0,2147120073,2147775259,2147568384,2147568521,523,2,13,17265
1370869432,5811,993.5599975585938000,38.7744789123535160,574.8901977539062000,4.0234928131103520,55.8522682189941400,54,98,101,77,81,15619,0,0,0,0,2147121380,2147775808,2147569618,2147568603,17,2,13,33883
1370873032,5807,990.7899780273438000,36.4707298278808600,574.8779907226562000,4.0238738059997560,56.2037887573242200,56,101,100,77,81,15616,0,0,0,0,2147123766,2147769408,2147569325,2147565897,252,2,13,60808
1370876632,5809,987.0800170898438000,37.6189613342285160,575.2103271484375000,4.0135350227355960,56.0327110290527340,55,99,100,78,80,15618,0,0,0,0,2147121892,2147769837,2147571154,2147568201,213,2,13,50860
1370880232,5810,990.6099853515625000,35.0025787353515600,575.8643188476562000,3.9931769371032715,56.4436798095703100,55,97,100,77,81,15615,0,0,0,0,2147120256,2147771766,2147566756,2147566564,3459,2,13,29000
1370883832,5811,986.4600219726562000,35.9481887817382800,576.1884765625000000,3.9830861091613770,56.2984199523925800,54,95,100,77,80,15615,0,0,0,0,2147122258,2147770944,2147568786,2147565924,87,3,13,54832
1370887432,5809,987.3599853515625000,37.3470802307128900,576.3421020507812000,3.9783060550689697,56.0797691345214840,55,101,99,84,79,15615,0,0,0,0,2147125577,2147770285,2147570816,2147568694,153,2,13,23571
1370891032,5811,992.2399902343750000,33.6180915832519500,576.7017211914062000,3.9671099185943604,56.6699409484863300,55,97,100,77,81,15614,0,0,0,0,2147121700,2147770834,2147573897,2147570834,321,3,13,40142
1370894632,5810,998.8800048828125000,39.0483207702636700,575.2097167968750000,4.0135498046875000,55.8132095336914060,55,97,99,77,82,15613,0,0,0,0,2147124708,2147771364,2147568749,2147568603,18,3,13,48070
1370898232,5811,1005.1699829101562000,38.9516601562500000,574.8546752929688000,4.0245990753173830,55.8267898559570300,55,97,100,76,80,15613,0,0,0,0,2147119789,2147771657,2147567926,2147569846,3126,2,13,8234
1370901832,5809,1007.5700073242188000,37.8024101257324200,574.2039184570312000,4.0448470115661620,55.9908294677734400,55,97,99,78,80,15612,0,0,0,0,2147123181,2147770313,2147576740,2147568585,3488,2,13,43941
1370905432,5810,1000.1599731445312000,37.6325798034668000,574.1234130859375000,4.0473542213439940,56.0149192810058600,55,98,99,78,81,15528,0,0,0,0,2147123776,2147772342,2147573549,2147566290,3497,2,13,32950
1370909032,5812,1009.4600219726562000,35.1723289489746100,574.0961303710938000,4.0482010841369630,56.3947296142578100,54,98,99,78,81,15529,0,0,0,0,2147121801,2147769572,2147567305,2147567040,27,3,13,57124
1370912632,5808,1004.2899780273438000,37.0461502075195300,574.3870239257812000,4.0391502380371090,56.1078491210937500,54,98,99,79,81,15529,0,0,0,0,2147122550,2147773211,2147568777,2147567762,3536,2,13,6678
1370916232,5808,999.1099853515625000,33.1157798767089840,574.7717285156250000,4.0271821022033690,56.7332687377929700,54,96,99,77,81,15527,0,0,0,0,2147123227,2147767542,2147570532,2147569892,237,3,13,8942
1370919832,5811,1004.6500244140625000,34.0158996582031250,575.0800781250000000,4.0175838470458980,56.5888481140136700,55,98,100,79,81,15528,0,0,0,0,2147121161,2147767497,2147568676,2147568338,76,3,13,6934
1370923432,5809,996.2399902343750000,38.6535797119140600,575.2495117187500000,4.0123119354248050,55.8725204467773440,55,99,100,78,81,15529,0,0,0,0,2147124187,2147771785,2147570907,2147567259,1552,2,13,31443
1370927032,5808,999.0000000000000000,38.3801193237304700,575.6738281250000000,3.9991068840026855,55.9193992614746100,56,97,99,78,81,15529,0,0,0,0,2147123017,2147775972,2147570761,2147569270,382,2,13,50962
1370930632,5810,991.7299804687500000,36.8784217834472660,575.9832153320312000,3.9894769191741943,56.1487998962402340,55,98,102,79,81,15529,0,0,0,0,2147121664,2147771163,2147573248,2147567076,3186,2,13,54586
1370934232,5812,1003.6099853515625000,38.1856193542480500,575.7590942382812000,3.9964520931243896,55.9468498229980500,55,98,99,78,80,15525,0,0,0,0,2147120164,2147773174,2147568283,2147568118,323,3,13,4475
1370937832,5810,998.4500122070312000,38.0832901000976560,574.6555175781250000,4.0307960510253910,55.9500312805175800,55,98,101,77,81,15523,0,0,0,0,2147121115,2147768429,2147568694,2147565440,2193,2,13,27539
1370941432,5808,999.6599731445312000,37.8328781127929700,576.1630859375000000,3.9838769435882570,56.0117797851562500,54,97,99,77,82,15523,0,0,0,0,2147122998,2147773257,2147569728,2147564251,61,3,13,3844
1370945032,5809,1001.5599975585938000,37.2253990173339840,575.0839233398438000,4.0174660682678220,56.0855598449707000,55,98,100,78,82,15522,0,0,0,0,2147123382,2147771044,2147571236,2147565952,570,2,13,54881
1370948632,5810,1006.3400268554688000,39.2939682006835940,575.0712280273438000,4.0178599357604980,55.7777481079101560,56,99,99,79,80,15524,0,0,0,0,2147119945,2147776987,2147569938,2147568566,2922,3,13,62068
1370952232,5810,1001.4099731445312000,36.6419296264648440,575.2443237304688000,4.0124740600585940,56.1767616271972660,55,97,100,79,82,15525,0,0,0,0,2147121728,2147771273,2147567442,2147570194,3363,2,13,30707
1370955832,5808,996.9799804687500000,36.6828804016113300,576.6796875000000000,3.9677960872650146,56.1912498474121100,55,97,100,78,81,15513,0,0,0,0,2147123794,2147771785,2147570477,2147567716,58,2,13,42120
1370959432,5809,998.2399902343750000,39.3407783508300800,576.5426025390625000,3.9720630645751953,55.7811012268066400,55,98,99,78,80,15522,0,0,0,0,2147120283,2147770240,2147569014,2147568822,237,3,13,28935
1370963032,5809,1005.5700073242188000,36.2163505554199200,575.7310180664062000,3.9973280429840090,56.2522697448730500,55,97,100,77,80,15523,0,0,0,0,2147119488,2147765888,2147571401,2147569691,450,2,13,11647
1370966632,5811,1009.2999877929688000,39.9557991027832000,575.0664062500000000,4.0180091857910160,55.6727600097656250,54,97,99,77,80,15521,0,0,0,0,2147121115,2147769453,2147566848,2147568932,19,2,13,51085
1370970232,5809,1007.9099731445312000,38.0616607666015600,575.0618286132812000,4.0181541442871090,55.9597892761230500,55,95,99,78,81,15523,0,0,0,0,2147120091,2147769618,2147574482,2147567972,35,3,13,27661
1370973832,5809,1005.4099731445312000,37.5638999938964840,575.0260009765625000,4.0192680358886720,56.0318603515625000,55,99,100,78,82,15516,0,0,0,0,2147124269,2147772470,2147568923,2147570267,195,2,13,42160
1370977432,5808,1008.9899902343750000,39.9483909606933600,575.5571899414062000,4.0027370452880860,55.6798515319824200,55,97,100,77,81,15521,0,0,0,0,2147121051,2147773394,2147565604,2147567899,3385,2,13,7159
1370981032,5811,999.8800048828125000,39.1362190246582000,575.4746704101562000,4.0053038597106930,55.8065109252929700,54,98,98,78,81,15521,0,0,0,0,2147121920,2147768749,2147570441,2147567314,295,2,13,46871
1370981757,5810,1003.8400268554688000,39.5607910156250000,575.7260742187500000,3.9974780082702637,55.7396583557128900,55,98,99,77,80,15520,0,0,0,0,2147120987,2147769234,2147568320,2147568384,113,2,13,38959
